星链-30820 (STARLINK-30820 )

导读

STARLINK-30820是美国太空探索技术公司SpaceX星链星座的一员,于2023年10月30日发射入轨,属于星链第二代组网卫星。星链项目旨在构建全球卫星互联网星座,该卫星承担低轨宽带互联网接入服务任务,为全球偏远地区、海洋、航空等场景提供通信网络支持,进一步扩充了星链星座的服务覆盖能力与容量。

Basic Information
目录编号:
58190
目录名称:
STARLINK-30820
国际标识:
2023-167R
轨道中心:
EARTH
卫星名称:
星链-30820
卫星全名:
星链-30820 (STARLINK-30820 )
卫星状态:
在轨 (已飞行1047 天)
发射日期:
2023-10-30 UTC
国别 :
美国 (US)
星等 :
--
This satellite is enrolled in the Space Conjunction Data Service (SCDS) and the current flight risk assessment level is: No High Risk
Orbit Information
数据来源 国际轨道数据 AOE轨道数据
星历时间 2026-09-11T11:42:31+0800
12小时前
查看轨道信息
2026-09-07T00:00:00+0800
5天前
查看轨道信息
半长轴 6861.213km 6861.201km
偏心率 0.0000672 0.0001216
轨道倾角 43.001° 43.002°
近地点辐角 266.815° 306.580°
升交点赤经 175.639° 200.994°
平近点角 93.263° 184.580°
近地点 482.614km 482.229km
远地点 483.538km 483.899km
周期 94.267分钟 94.267分钟
每日圈数 15.275713 15.275753
Detailed Information
固有亮度:
5
最大亮度:
0.3
卫星平台:
Starlink v2.0 mini
覆盖范围:
全球
运营商:
太空探索技术公司
运营商所在国:
美国
制造商(研发单位):
太空探索技术公司
制造商所在国:
美国
使用方式:
暂无
Satellite Introduction
星链(Starlink)计划是由太空探索技术公司(SpaceX)提出的一个巨型低轨卫星互联网星座项目,计划在2019年至2024年间在太空搭建由约1.2万颗卫星组成的“星链”网络,其中1584颗将部署在地球上空550千米处的近地轨道,并从2020年开始工作。该卫星仍在工作。
2D Orbit Map
3D Orbit Map
Orbit Altitude Analysis Chart
Orbit Inclination Analysis Chart
Orbit Comprehensive Analysis Chart
View Comprehensive Chart
Miss Distance Evolution Trend with All Objects
Collision Probability Evolution Trend with All Objects